Location: Unspecified
(0.0000°N, 0.0000°E)
Time: 22:45:25
(UTC+00:00)

Shinsei - Pass Details

Date: 07 December 2023
Orbit: 869 x 1860 km, 32.1° (Epoch: 01 March)

Event Time Altitude Azimuth Distance (km) Brightness Sun altitude
Rises 18:08:27 0° 273° (W) 4,729 14.4 -3.9°
Reaches altitude 10° 18:12:06 10° 261° (W) 3,885 14.3 -4.8°
Maximum altitude 18:20:31 28° 207° (SSW) 2,956 12.7 -6.7°
Drops below altitude 10° 18:29:40 10° 154° (SSE) 4,222 12.8 -8.8°
Sets 18:33:55 0° 142° (SE) 5,205 13.1 -9.8°
